Lake Murray Weather Center

Moon Phase Calendar



Lake Murray Water Level
Online Cameras

 


      

Current Conditions in Chapin
11/23/2020 10:00:11 PM

46°F
Feels Like 38
Clear
Humidity
65%
Pressure
30.24"
Wind
6.9 mph (NE)
Dew Point
34°F
UV Index
3/10 (Moderate)
Visibility
6 mi

Hourly Forecast

Date & Time Mon, Nov 23
10:00 PM
Mon, Nov 23
11:00 PM
Tue, Nov 24
12:00 AM
Tue, Nov 24
1:00 AM
Tue, Nov 24
2:00 AM
Tue, Nov 24
3:00 AM
Tue, Nov 24
4:00 AM
Tue, Nov 24
5:00 AM
Tue, Nov 24
6:00 AM
Tue, Nov 24
7:00 AM
Tue, Nov 24
8:00 AM
Tue, Nov 24
9:00 AM
Tue, Nov 24
10:00 AM
Tue, Nov 24
11:00 AM
Tue, Nov 24
12:00 PM
Tue, Nov 24
1:00 PM
Tue, Nov 24
2:00 PM
Tue, Nov 24
3:00 PM
Tue, Nov 24
4:00 PM
Tue, Nov 24
5:00 PM
Tue, Nov 24
6:00 PM
Tue, Nov 24
7:00 PM
Tue, Nov 24
8:00 PM
Tue, Nov 24
9:00 PM
Tue, Nov 24
10:00 PM
Tue, Nov 24
11:00 PM
Wed, Nov 25
12:00 AM
Wed, Nov 25
1:00 AM
Wed, Nov 25
2:00 AM
Wed, Nov 25
3:00 AM
Wed, Nov 25
4:00 AM
Wed, Nov 25
5:00 AM
Wed, Nov 25
6:00 AM
Wed, Nov 25
7:00 AM
Wed, Nov 25
8:00 AM
Wed, Nov 25
9:00 AM
Wed, Nov 25
10:00 AM
Wed, Nov 25
11:00 AM
Wed, Nov 25
12:00 PM
Wed, Nov 25
1:00 PM
Wed, Nov 25
2:00 PM
Wed, Nov 25
3:00 PM
Wed, Nov 25
4:00 PM
Wed, Nov 25
5:00 PM
Wed, Nov 25
6:00 PM
Wed, Nov 25
7:00 PM
Wed, Nov 25
8:00 PM
Wed, Nov 25
9:00 PM
Condition
Clear

Clear

Clear

Clear

Clear

Clear

Clear

Clear

Clear

Clear

Clear

Clear

Clear

Clouds

Clear

Clouds

Clear

Clear

Clouds

Clouds

Clouds

Clouds

Clouds

Clouds

Clouds

Clouds

Clouds

Clouds

Clouds

Clouds

Clouds

Clouds

Clouds

Clouds

Clouds

Clouds

Clouds

Clouds

Clouds

Clouds

Clouds

Clouds

Clouds

Clouds

Clouds

Clouds

Clouds

Clouds
Temperature 46°F46°F46°F44°F43°F42°F41°F40°F40°F39°F41°F45°F49°F52°F55°F57°F58°F58°F57°F52°F49°F48°F47°F46°F46°F45°F45°F46°F48°F49°F50°F50°F49°F50°F51°F52°F54°F55°F57°F58°F59°F61°F61°F58°F55°F55°F55°F57°F
Feels Like 38°F38°F38°F37°F36°F35°F34°F34°F33°F33°F35°F38°F42°F45°F48°F50°F51°F51°F50°F46°F43°F41°F40°F40°F39°F39°F39°F40°F42°F43°F43°F44°F44°F44°F46°F48°F50°F52°F54°F56°F57°F59°F59°F56°F53°F53°F53°F55°F
Cloudiness 1%1%0%0%0%0%0%0%1%2%1%0%2%12%10%13%0%0%11%24%39%49%100%100%100%100%100%100%100%100%100%100%100%100%100%100%100%100%100%100%100%97%81%84%76%67%37%67%
Visibility 6 mi6 mi6 mi6 mi6 mi6 mi6 mi6 mi6 mi6 mi6 mi6 mi6 mi6 mi6 mi6 mi6 mi6 mi6 mi6 mi6 mi6 mi6 mi6 mi6 mi6 mi6 mi6 mi6 mi6 mi6 mi6 mi6 mi6 mi6 mi6 mi6 mi6 mi6 mi6 mi6 mi6 mi6 mi6 mi6 mi6 mi6 mi6 mi
Precipitation 0%0%0%0%0%0%0%0%0%0%0%0%0%0%0%0%0%0%0%0%0%0%0%0%0%0%0%0%0%0%0%0%0%0%0%0%0%0%0%0%0%0%0%0%0%0%0%0%
Humidity 65%60%61%64%67%69%70%71%73%75%69%59%52%46%41%38%37%37%40%50%53%55%57%59%60%61%62%60%56%58%62%66%70%72%74%74%74%75%74%75%74%73%75%85%91%92%93%91%
Dew Point 34°F33°F33°F33°F33°F33°F32°F31°F31°F31°F31°F32°F33°F32°F32°F32°F32°F32°F33°F34°F33°F33°F33°F33°F33°F33°F33°F33°F34°F35°F37°F39°F40°F41°F43°F45°F46°F48°F49°F50°F51°F53°F53°F53°F53°F53°F53°F55°F
Pressure 30.24"30.24"30.3"30.3"30.33"30.33"30.33"30.36"30.36"30.39"30.42"30.42"30.42"30.42"30.39"30.36"30.33"30.33"30.33"30.33"30.36"30.39"30.39"30.39"30.39"30.39"30.36"30.36"30.36"30.36"30.33"30.33"30.33"30.33"30.33"30.33"30.33"30.33"30.3"30.27"30.24"30.21"30.21"30.21"30.21"30.21"30.21"30.21"
Wind Speed 7.7 mph8.7 mph7.4 mph7.1 mph6.9 mph6.2 mph6.1 mph5.6 mph5.6 mph4.9 mph5.2 mph6.7 mph6.7 mph6 mph5.7 mph5.4 mph5.6 mph5.5 mph5.6 mph4.7 mph4.6 mph5.5 mph5.4 mph5.5 mph5.7 mph5.3 mph4.4 mph4.5 mph5 mph5.6 mph6.1 mph5.9 mph6 mph6.3 mph5.5 mph5.4 mph4.8 mph4.7 mph5.1 mph4.3 mph4.5 mph5.2 mph5.6 mph4.8 mph4.9 mph4.6 mph5.1 mph6.1 mph
Wind
Direction
57°
ENE
55°
NE
56°
NE
54°
NE
59°
ENE
49°
NE
51°
NE
41°
NE
48°
NE
61°
ENE
67°
ENE
83°
E
92°
E
101°
E
110°
ESE
115°
ESE
116°
ESE
115°
ESE
118°
ESE
118°
ESE
113°
ESE
111°
ESE
106°
ESE
107°
ESE
112°
ESE
109°
ESE
102°
ESE
102°
ESE
106°
ESE
103°
ESE
107°
ESE
107°
ESE
109°
ESE
113°
ESE
118°
ESE
130°
SE
124°
SE
126°
SE
130°
SE
138°
SE
133°
SE
140°
SE
134°
SE
116°
ESE
114°
ESE
120°
ESE
124°
SE
133°
SE

Daily Forecast

Date High Low Precip. Humidity
Today
Nov 23

Clear
65 °F
46 °F
0%
44%
Tuesday
Nov 24

Clouds
57 °F
39 °F
0%
38%
Wednesday
Nov 25

Clouds
61 °F
46 °F
0%
75%
Thursday
Nov 26

Rain
73 °F
61 °F
89%
67%
Friday
Nov 27

Rain
73 °F
58 °F
43%
51%
Saturday
Nov 28

Rain
64 °F
57 °F
100%
96%
Sunday
Nov 29

Rain
60 °F
49 °F
100%
91%
Monday
Nov 30

Rain
57 °F
37 °F
100%
72%
Tuesday
Dec 1

Clear
43 °F
28 °F
0%
53%
Wednesday
Dec 2

Clouds
45 °F
29 °F
0%
54%
Thursday
Dec 3

Rain
50 °F
35 °F
100%
81%
Friday
Dec 4

Rain
45 °F
33 °F
45%
64%
Saturday
Dec 5

Rain
47 °F
30 °F
22%
54%
Sunday
Dec 6

Clear
57 °F
40 °F
0%
53%
Monday
Dec 7

Clear
51 °F
36 °F
0%
45%
Tuesday
Dec 8

Clouds
48 °F
30 °F
0%
46%


Temperature 8-14 Day Outlook



Precipitation 8-14 Day Outlook




Quick Links
Lake Murray News
Lake Murray Photos
Lake Murray Videos




About Us
Contact Us
Site Map
Search Site
Advertise With Us
   
Murray.USLakes.info
THE LAKE MURRAY WEBSITE

Copyright 2020, Lakes Online
Privacy    |    Legal